Tracking 35274 objects as of 12-Sep-2026
HD Live streaming from Space Station
objects crossing your sky now

PSLV R/B

Track PSLV R/B now!
10-day predictions


NORAD ID: 28050
Int'l Code: 2003-046B
Launch date: October 17, 2003
Source: India (IND)
Launch site: SRIHARIKOTA (SRI)

Note: This is a ROCKET BODY
Your satellite tracking list
Your tracking list is empty




NASA's NSSDC Master Catalog

Two Line Element Set (TLE):
1 28050U 03046B   26254.92811838  .00000048  00000-0  45654-4 0  9997
2 28050  99.0761 235.7520 0051154  26.0063  27.9687 14.17612786184382
Source of the keplerian elements: AFSPC